Time,TemperatureF,DewpointF,PressureIn,WindDirection,WindDirectionDegrees,WindSpeedMPH,WindSpeedGustMPH,Humidity,HourlyPrecipIn,Conditions,Clouds,dailyrainin,SoftwareType,DateUTC
2013-07-19 00:06:00,63.5,55.4,30.31,East,80,0.0,0.0,75,0.00,,,0.00,Wunderground v.1.15,2013-07-18 23:06:00,
2013-07-19 00:11:00,63.3,55.2,30.31,East,80,0.0,0.0,75,0.00,,,0.00,Wunderground v.1.15,2013-07-18 23:11:00,
2013-07-19 00:21:00,63.1,55.0,30.31,East,80,0.0,1.0,75,0.00,,,0.00,Wunderground v.1.15,2013-07-18 23:21:00,
2013-07-19 00:31:00,62.8,54.4,30.31,East,80,0.0,2.0,74,0.00,,,0.00,Wunderground v.1.15,2013-07-18 23:31:00,
2013-07-19 00:36:00,62.6,54.2,30.30,East,80,0.0,2.0,74,0.00,,,0.00,Wunderground v.1.15,2013-07-18 23:36:00,
2013-07-19 00:46:00,62.3,53.9,30.30,North,5,1.0,1.0,74,0.00,,,0.00,Wunderground v.1.15,2013-07-18 23:46:00,
2013-07-19 00:51:00,62.3,53.5,30.30,ENE,76,1.0,1.0,73,0.00,,,0.00,Wunderground v.1.15,2013-07-18 23:51:00,
2013-07-19 01:01:00,62.5,53.3,30.30,ENE,67,1.0,1.0,72,0.00,,,0.00,Wunderground v.1.15,2013-07-19 00:01:00,
2013-07-19 01:11:00,62.4,52.9,30.30,East,81,0.0,0.0,71,0.00,,,0.00,Wunderground v.1.15,2013-07-19 00:11:00,
2013-07-19 01:21:00,62.4,52.9,30.30,East,81,0.0,0.0,71,0.00,,,0.00,Wunderground v.1.15,2013-07-19 00:21:00,
2013-07-19 01:31:00,62.1,52.6,30.30,ENE,78,0.0,1.0,71,0.00,,,0.00,Wunderground v.1.15,2013-07-19 00:31:00,
2013-07-19 01:36:00,62.0,52.9,30.30,ENE,78,0.0,1.0,72,0.00,,,0.00,Wunderground v.1.15,2013-07-19 00:36:00,
2013-07-19 01:46:00,61.7,52.6,30.30,ENE,78,0.0,0.0,72,0.00,,,0.00,Wunderground v.1.15,2013-07-19 00:46:00,
2013-07-19 01:51:00,61.5,52.8,30.30,ENE,78,0.0,0.0,73,0.00,,,0.00,Wunderground v.1.15,2013-07-19 00:51:00,
2013-07-19 01:56:00,61.4,52.7,30.30,ENE,78,0.0,0.0,73,0.00,,,0.00,Wunderground v.1.15,2013-07-19 00:56:00,
2013-07-19 02:06:00,61.1,52.4,30.30,ENE,78,0.0,0.0,73,0.00,,,0.00,Wunderground v.1.15,2013-07-19 01:06:00,
2013-07-19 02:11:00,61.0,52.3,30.30,ENE,78,0.0,0.0,73,0.00,,,0.00,Wunderground v.1.15,2013-07-19 01:11:00,
2013-07-19 02:21:00,60.8,52.5,30.29,ENE,78,0.0,0.0,74,0.00,,,0.00,Wunderground v.1.15,2013-07-19 01:21:00,
2013-07-19 02:31:00,60.5,52.2,30.29,ENE,78,0.0,0.0,74,0.00,,,0.00,Wunderground v.1.15,2013-07-19 01:31:00,
2013-07-19 02:36:00,60.3,52.0,30.29,ENE,78,0.0,0.0,74,0.00,,,0.00,Wunderground v.1.15,2013-07-19 01:36:00,
2013-07-19 02:41:00,60.2,52.2,30.29,ENE,78,0.0,0.0,75,0.00,,,0.00,Wunderground v.1.15,2013-07-19 01:41:00,
2013-07-19 02:51:00,60.0,52.1,30.29,ENE,78,0.0,0.0,75,0.00,,,0.00,Wunderground v.1.15,2013-07-19 01:51:00,
2013-07-19 02:56:00,59.9,52.3,30.29,ENE,78,0.0,0.0,76,0.00,,,0.00,Wunderground v.1.15,2013-07-19 01:56:00,
2013-07-19 03:06:00,59.7,52.5,30.29,ENE,78,0.0,0.0,77,0.00,,,0.00,Wunderground v.1.15,2013-07-19 02:06:00,
2013-07-19 03:11:00,59.5,52.3,30.29,ENE,78,0.0,0.0,77,0.00,,,0.00,Wunderground v.1.15,2013-07-19 02:11:00,
2013-07-19 03:21:00,59.2,52.3,30.29,ENE,78,0.0,0.0,78,0.00,,,0.00,Wunderground v.1.15,2013-07-19 02:21:00,
2013-07-19 03:26:00,59.1,52.2,30.29,ENE,78,0.0,0.0,78,0.00,,,0.00,Wunderground v.1.15,2013-07-19 02:26:00,
2013-07-19 03:36:00,58.8,52.0,30.29,ENE,78,0.0,0.0,78,0.00,,,0.00,Wunderground v.1.15,2013-07-19 02:36:00,
2013-07-19 03:46:00,58.7,52.2,30.29,ENE,78,0.0,0.0,79,0.00,,,0.00,Wunderground v.1.15,2013-07-19 02:46:00,
2013-07-19 03:51:00,58.6,52.1,30.29,ENE,78,0.0,0.0,79,0.00,,,0.00,Wunderground v.1.15,2013-07-19 02:51:00,
2013-07-19 04:01:00,58.3,51.8,30.29,ENE,78,0.0,0.0,79,0.00,,,0.00,Wunderground v.1.15,2013-07-19 03:01:00,
2013-07-19 04:06:00,58.1,51.6,30.28,ENE,78,0.0,0.0,79,0.00,,,0.00,Wunderground v.1.15,2013-07-19 03:06:00,
2013-07-19 04:16:00,57.9,51.4,30.28,ENE,78,0.0,0.0,79,0.00,,,0.00,Wunderground v.1.15,2013-07-19 03:16:00,
2013-07-19 04:26:00,57.7,51.2,30.28,ENE,78,0.0,0.0,79,0.00,,,0.00,Wunderground v.1.15,2013-07-19 03:26:00,
2013-07-19 04:36:00,57.6,51.1,30.28,ENE,78,0.0,0.0,79,0.00,,,0.00,Wunderground v.1.15,2013-07-19 03:36:00,
2013-07-19 04:46:00,57.5,51.0,30.28,ENE,78,0.0,0.0,79,0.00,,,0.00,Wunderground v.1.15,2013-07-19 03:46:00,
2013-07-19 04:56:00,57.2,51.1,30.28,ENE,78,0.0,0.0,80,0.00,,,0.00,Wunderground v.1.15,2013-07-19 03:56:00,
2013-07-19 05:01:00,57.0,50.9,30.28,ENE,78,0.0,0.0,80,0.00,,,0.00,Wunderground v.1.15,2013-07-19 04:01:00,
2013-07-19 05:06:00,56.8,50.7,30.28,ENE,78,0.0,0.0,80,0.00,,,0.00,Wunderground v.1.15,2013-07-19 04:06:00,
2013-07-19 05:11:00,56.7,50.9,30.28,ENE,78,0.0,0.0,81,0.00,,,0.00,Wunderground v.1.15,2013-07-19 04:11:00,
2013-07-19 05:16:00,56.6,50.8,30.28,ENE,78,0.0,0.0,81,0.00,,,0.00,Wunderground v.1.15,2013-07-19 04:16:00,
2013-07-19 05:21:00,56.5,50.7,30.28,ENE,78,0.0,0.0,81,0.00,,,0.00,Wunderground v.1.15,2013-07-19 04:21:00,
2013-07-19 05:31:00,56.4,50.6,30.28,ENE,78,0.0,0.0,81,0.00,,,0.00,Wunderground v.1.15,2013-07-19 04:31:00,
2013-07-19 05:36:00,56.5,50.7,30.28,ENE,78,0.0,0.0,81,0.00,,,0.00,Wunderground v.1.15,2013-07-19 04:36:00,
2013-07-19 05:41:00,56.4,50.6,30.28,ENE,78,0.0,0.0,81,0.00,,,0.00,Wunderground v.1.15,2013-07-19 04:41:00,
2013-07-19 05:46:00,56.4,51.0,30.28,ENE,78,0.0,0.0,82,0.00,,,0.00,Wunderground v.1.15,2013-07-19 04:46:00,
2013-07-19 05:56:00,56.3,50.9,30.28,ENE,78,0.0,0.0,82,0.00,,,0.00,Wunderground v.1.15,2013-07-19 04:56:00,
2013-07-19 06:06:00,56.3,50.9,30.28,ENE,78,0.0,0.0,82,0.00,,,0.00,Wunderground v.1.15,2013-07-19 05:06:00,
2013-07-19 06:11:00,56.3,50.9,30.28,ENE,78,0.0,0.0,82,0.00,,,0.00,Wunderground v.1.15,2013-07-19 05:11:00,
2013-07-19 06:16:00,56.4,51.0,30.28,ENE,78,0.0,0.0,82,0.00,,,0.00,Wunderground v.1.15,2013-07-19 05:16:00,
2013-07-19 06:26:00,56.7,51.3,30.28,ENE,78,0.0,0.0,82,0.00,,,0.00,Wunderground v.1.15,2013-07-19 05:26:00,
2013-07-19 06:31:00,56.9,51.5,30.28,ENE,78,0.0,0.0,82,0.00,,,0.00,Wunderground v.1.15,2013-07-19 05:31:00,
2013-07-19 06:36:00,57.1,51.7,30.28,ENE,78,0.0,0.0,82,0.00,,,0.00,Wunderground v.1.15,2013-07-19 05:36:00,
2013-07-19 06:46:00,57.5,52.0,30.28,ENE,78,0.0,0.0,82,0.00,,,0.00,Wunderground v.1.15,2013-07-19 05:46:00,
2013-07-19 06:56:00,58.0,52.2,30.28,ENE,78,0.0,0.0,81,0.00,,,0.00,Wunderground v.1.15,2013-07-19 05:56:00,
2013-07-19 07:06:00,59.0,52.8,30.29,East,86,0.0,2.0,80,0.00,,,0.00,Wunderground v.1.15,2013-07-19 06:06:00,
2013-07-19 07:16:00,60.2,53.3,30.29,ENE,74,1.0,3.0,78,0.00,,,0.00,Wunderground v.1.15,2013-07-19 06:16:00,
2013-07-19 07:26:00,61.6,53.6,30.29,ENE,78,1.0,2.0,75,0.00,,,0.00,Wunderground v.1.15,2013-07-19 06:26:00,
2013-07-19 07:36:00,63.1,53.9,30.29,ENE,57,1.0,1.0,72,0.00,,,0.00,Wunderground v.1.15,2013-07-19 06:36:00,
2013-07-19 07:46:00,64.6,54.6,30.29,East,82,1.0,2.0,70,0.00,,,0.00,Wunderground v.1.15,2013-07-19 06:46:00,
2013-07-19 07:56:00,65.7,54.4,30.29,ENE,65,2.0,2.0,67,0.00,,,0.00,Wunderground v.1.15,2013-07-19 06:56:00,
2013-07-19 08:06:00,66.3,55.0,30.28,East,88,2.0,2.0,67,0.00,,,0.00,Wunderground v.1.15,2013-07-19 07:06:00,
2013-07-19 08:11:00,66.6,54.9,30.28,NE,51,1.0,1.0,66,0.00,,,0.00,Wunderground v.1.15,2013-07-19 07:11:00,
2013-07-19 08:16:00,66.9,55.2,30.28,North,360,1.0,8.0,66,0.00,,,0.00,Wunderground v.1.15,2013-07-19 07:16:00,
2013-07-19 08:26:00,67.0,54.4,30.28,NE,49,2.0,2.0,64,0.00,,,0.00,Wunderground v.1.15,2013-07-19 07:26:00,
2013-07-19 08:31:00,67.0,54.4,30.28,East,94,1.0,3.0,64,0.00,,,0.00,Wunderground v.1.15,2013-07-19 07:31:00,
2013-07-19 08:41:00,67.2,54.6,30.28,ESE,108,3.0,3.0,64,0.00,,,0.00,Wunderground v.1.15,2013-07-19 07:41:00,
2013-07-19 08:51:00,67.8,55.2,30.28,ENE,76,3.0,5.0,64,0.00,,,0.00,Wunderground v.1.15,2013-07-19 07:51:00,
2013-07-19 08:56:00,68.1,55.0,30.28,ENE,75,3.0,5.0,63,0.00,,,0.00,Wunderground v.1.15,2013-07-19 07:56:00,
2013-07-19 09:06:00,68.5,55.0,30.28,ESE,121,1.0,2.0,62,0.00,,,0.00,Wunderground v.1.15,2013-07-19 08:06:00,
2013-07-19 09:16:00,69.7,55.6,30.28,NNE,22,2.0,6.0,61,0.00,,,0.00,Wunderground v.1.15,2013-07-19 08:16:00,
2013-07-19 09:26:00,70.6,56.9,30.28,NNE,21,3.0,3.0,62,0.00,,,0.00,Wunderground v.1.15,2013-07-19 08:26:00,
2013-07-19 09:36:00,71.9,55.3,30.28,East,94,2.0,2.0,56,0.00,,,0.00,Wunderground v.1.15,2013-07-19 08:36:00,
2013-07-19 09:46:00,72.6,56.0,30.28,SE,140,2.0,2.0,56,0.00,,,0.00,Wunderground v.1.15,2013-07-19 08:46:00,
2013-07-19 09:56:00,73.1,55.5,30.28,East,86,2.0,4.0,54,0.00,,,0.00,Wunderground v.1.15,2013-07-19 08:56:00,
2013-07-19 10:01:00,73.4,55.7,30.28,ESE,115,2.0,2.0,54,0.00,,,0.00,Wunderground v.1.15,2013-07-19 09:01:00,
2013-07-19 10:06:00,73.7,56.0,30.28,ENE,65,2.0,4.0,54,0.00,,,0.00,Wunderground v.1.15,2013-07-19 09:06:00,
2013-07-19 10:16:00,74.4,56.2,30.28,NE,50,3.0,3.0,53,0.00,,,0.00,Wunderground v.1.15,2013-07-19 09:16:00,
2013-07-19 10:21:00,74.6,55.3,30.28,ENE,71,3.0,3.0,51,0.00,,,0.00,Wunderground v.1.15,2013-07-19 09:21:00,
2013-07-19 10:26:00,74.7,55.9,30.28,ESE,106,3.0,3.0,52,0.00,,,0.00,Wunderground v.1.15,2013-07-19 09:26:00,
2013-07-19 10:31:00,74.9,56.1,30.28,North,5,3.0,3.0,52,0.00,,,0.00,Wunderground v.1.15,2013-07-19 09:31:00,
2013-07-19 10:36:00,75.2,55.8,30.28,NE,41,4.0,4.0,51,0.00,,,0.00,Wunderground v.1.15,2013-07-19 09:36:00,
2013-07-19 10:46:00,75.6,57.3,30.28,NE,38,3.0,5.0,53,0.00,,,0.00,Wunderground v.1.15,2013-07-19 09:46:00,
2013-07-19 10:56:00,75.7,57.9,30.28,WNW,298,3.0,4.0,54,0.00,,,0.00,Wunderground v.1.15,2013-07-19 09:56:00,
2013-07-19 11:06:00,76.2,56.7,30.28,West,263,4.0,4.0,51,0.00,,,0.00,Wunderground v.1.15,2013-07-19 10:06:00,
2013-07-19 11:11:00,76.6,56.6,30.27,East,90,3.0,3.0,50,0.00,,,0.00,Wunderground v.1.15,2013-07-19 10:11:00,
2013-07-19 11:21:00,76.5,55.9,30.28,NE,56,3.0,3.0,49,0.00,,,0.00,Wunderground v.1.15,2013-07-19 10:21:00,
2013-07-19 11:26:00,76.7,56.1,30.27,NE,51,4.0,5.0,49,0.00,,,0.00,Wunderground v.1.15,2013-07-19 10:26:00,
2013-07-19 11:36:00,77.4,56.7,30.27,East,82,4.0,4.0,49,0.00,,,0.00,Wunderground v.1.15,2013-07-19 10:36:00,
2013-07-19 11:46:00,77.8,58.2,30.27,NNE,31,3.0,4.0,51,0.00,,,0.00,Wunderground v.1.15,2013-07-19 10:46:00,
2013-07-19 11:51:00,77.9,57.8,30.27,NE,46,3.0,5.0,50,0.00,,,0.00,Wunderground v.1.15,2013-07-19 10:51:00,
2013-07-19 12:01:00,78.4,57.7,30.27,East,91,2.0,2.0,49,0.00,,,0.00,Wunderground v.1.15,2013-07-19 11:01:00,
2013-07-19 12:11:00,78.7,57.4,30.27,East,100,3.0,3.0,48,0.00,,,0.00,Wunderground v.1.15,2013-07-19 11:11:00,
2013-07-19 12:16:00,78.9,59.2,30.27,NNE,13,3.0,3.0,51,0.00,,,0.00,Wunderground v.1.15,2013-07-19 11:16:00,
2013-07-19 12:26:00,79.4,58.0,30.27,NNW,344,3.0,4.0,48,0.00,,,0.00,Wunderground v.1.15,2013-07-19 11:26:00,
2013-07-19 12:36:00,79.4,58.0,30.26,SSE,162,4.0,4.0,48,0.00,,,0.00,Wunderground v.1.15,2013-07-19 11:36:00,
2013-07-19 12:46:00,80.2,58.7,30.26,SE,138,3.0,4.0,48,0.00,,,0.00,Wunderground v.1.15,2013-07-19 11:46:00,
2013-07-19 12:51:00,81.0,58.3,30.26,East,93,3.0,3.0,46,0.00,,,0.00,Wunderground v.1.15,2013-07-19 11:51:00,
2013-07-19 13:01:00,80.6,58.5,30.26,NE,34,3.0,3.0,47,0.00,,,0.00,Wunderground v.1.15,2013-07-19 12:01:00,
2013-07-19 13:06:00,80.6,57.3,30.25,ENE,59,4.0,6.0,45,0.00,,,0.00,Wunderground v.1.15,2013-07-19 12:06:00,
2013-07-19 13:16:00,80.6,57.9,30.25,WNW,301,4.0,5.0,46,0.00,,,0.00,Wunderground v.1.15,2013-07-19 12:16:00,
2013-07-19 13:26:00,80.7,58.6,30.25,ENE,76,4.0,6.0,47,0.00,,,0.00,Wunderground v.1.15,2013-07-19 12:26:00,
2013-07-19 13:36:00,81.1,57.7,30.25,ESE,111,4.0,7.0,45,0.00,,,0.00,Wunderground v.1.15,2013-07-19 12:36:00,
2013-07-19 13:46:00,81.5,56.8,30.25,SSW,196,4.0,4.0,43,0.00,,,0.00,Wunderground v.1.15,2013-07-19 12:46:00,
2013-07-19 13:51:00,81.6,58.2,30.25,North,9,3.0,3.0,45,0.00,,,0.00,Wunderground v.1.15,2013-07-19 12:51:00,
2013-07-19 14:01:00,81.8,56.5,30.25,East,86,4.0,4.0,42,0.00,,,0.00,Wunderground v.1.15,2013-07-19 13:01:00,
2013-07-19 14:06:00,81.7,57.0,30.25,ENE,78,4.0,4.0,43,0.00,,,0.00,Wunderground v.1.15,2013-07-19 13:06:00,
2013-07-19 14:11:00,81.8,56.5,30.25,ENE,73,3.0,3.0,42,0.00,,,0.00,Wunderground v.1.15,2013-07-19 13:11:00,
2013-07-19 14:21:00,82.2,57.5,30.25,ENE,63,3.0,10.0,43,0.00,,,0.00,Wunderground v.1.15,2013-07-19 13:21:00,
2013-07-19 14:31:00,82.1,57.4,30.25,ENE,69,5.0,8.0,43,0.00,,,0.00,Wunderground v.1.15,2013-07-19 13:31:00,
2013-07-19 14:36:00,82.0,57.3,30.25,ENE,76,4.0,8.0,43,0.00,,,0.00,Wunderground v.1.15,2013-07-19 13:36:00,
2013-07-19 14:46:00,82.7,57.3,30.25,SE,143,3.0,4.0,42,0.00,,,0.00,Wunderground v.1.15,2013-07-19 13:46:00,
2013-07-19 14:51:00,82.6,56.5,30.25,East,80,3.0,4.0,41,0.00,,,0.00,Wunderground v.1.15,2013-07-19 13:51:00,
2013-07-19 14:56:00,82.6,56.5,30.25,ENE,70,4.0,4.0,41,0.00,,,0.00,Wunderground v.1.15,2013-07-19 13:56:00,
2013-07-19 15:06:00,82.7,56.6,30.24,ENE,65,4.0,4.0,41,0.00,,,0.00,Wunderground v.1.15,2013-07-19 14:06:00,
2013-07-19 15:11:00,82.6,56.5,30.24,NE,44,4.0,4.0,41,0.00,,,0.00,Wunderground v.1.15,2013-07-19 14:11:00,
2013-07-19 15:16:00,82.5,57.7,30.24,SSE,148,3.0,4.0,43,0.00,,,0.00,Wunderground v.1.15,2013-07-19 14:16:00,
2013-07-19 15:26:00,83.2,56.4,30.24,ENE,73,4.0,4.0,40,0.00,,,0.00,Wunderground v.1.15,2013-07-19 14:26:00,
2013-07-19 15:36:00,83.1,56.3,30.24,NNE,16,4.0,5.0,40,0.00,,,0.00,Wunderground v.1.15,2013-07-19 14:36:00,
2013-07-19 15:46:00,83.2,56.4,30.23,East,85,4.0,8.0,40,0.00,,,0.00,Wunderground v.1.15,2013-07-19 14:46:00,
2013-07-19 15:56:00,83.0,56.9,30.23,ENE,66,4.0,4.0,41,0.00,,,0.00,Wunderground v.1.15,2013-07-19 14:56:00,
2013-07-19 16:06:00,83.4,57.2,30.23,ESE,120,3.0,3.0,41,0.00,,,0.00,Wunderground v.1.15,2013-07-19 15:06:00,
2013-07-19 16:16:00,83.4,57.2,30.23,ENE,66,2.0,8.0,41,0.00,,,0.00,Wunderground v.1.15,2013-07-19 15:16:00,
2013-07-19 16:26:00,83.6,57.4,30.23,East,80,3.0,5.0,41,0.00,,,0.00,Wunderground v.1.15,2013-07-19 15:26:00,
2013-07-19 16:36:00,82.8,56.7,30.22,ESE,106,3.0,3.0,41,0.00,,,0.00,Wunderground v.1.15,2013-07-19 15:36:00,
2013-07-19 16:46:00,82.6,56.5,30.22,East,101,3.0,3.0,41,0.00,,,0.00,Wunderground v.1.15,2013-07-19 15:46:00,
2013-07-19 16:56:00,82.3,56.9,30.22,SE,134,3.0,3.0,42,0.00,,,0.00,Wunderground v.1.15,2013-07-19 15:56:00,
2013-07-19 17:06:00,81.8,57.1,30.21,SSE,152,3.0,5.0,43,0.00,,,0.00,Wunderground v.1.15,2013-07-19 16:06:00,
2013-07-19 17:11:00,81.7,57.0,30.21,NE,34,3.0,3.0,43,0.00,,,0.00,Wunderground v.1.15,2013-07-19 16:11:00,
2013-07-19 17:21:00,81.4,57.4,30.21,North,355,3.0,3.0,44,0.00,,,0.00,Wunderground v.1.15,2013-07-19 16:21:00,
2013-07-19 17:26:00,81.7,57.7,30.21,East,81,3.0,3.0,44,0.00,,,0.00,Wunderground v.1.15,2013-07-19 16:26:00,
2013-07-19 17:36:00,82.0,57.9,30.20,NE,37,3.0,3.0,44,0.00,,,0.00,Wunderground v.1.15,2013-07-19 16:36:00,
2013-07-19 17:46:00,81.9,58.5,30.20,SSW,208,2.0,2.0,45,0.00,,,0.00,Wunderground v.1.15,2013-07-19 16:46:00,
2013-07-19 17:56:00,81.4,58.0,30.20,ENE,64,3.0,3.0,45,0.00,,,0.00,Wunderground v.1.15,2013-07-19 16:56:00,
2013-07-19 18:01:00,81.4,58.6,30.20,East,94,3.0,3.0,46,0.00,,,0.00,Wunderground v.1.15,2013-07-19 17:01:00,
2013-07-19 18:06:00,81.3,58.5,30.20,NE,54,3.0,3.0,46,0.00,,,0.00,Wunderground v.1.15,2013-07-19 17:06:00,
2013-07-19 18:16:00,81.2,58.5,30.20,ENE,58,3.0,3.0,46,0.00,,,0.00,Wunderground v.1.15,2013-07-19 17:16:00,
2013-07-19 18:21:00,80.6,58.5,30.20,East,83,3.0,3.0,47,0.00,,,0.00,Wunderground v.1.15,2013-07-19 17:21:00,
2013-07-19 18:31:00,80.2,58.7,30.20,East,79,3.0,3.0,48,0.00,,,0.00,Wunderground v.1.15,2013-07-19 17:31:00,
2013-07-19 18:41:00,80.2,58.7,30.20,ENE,66,2.0,5.0,48,0.00,,,0.00,Wunderground v.1.15,2013-07-19 17:41:00,
2013-07-19 18:51:00,79.4,59.1,30.20,NNE,13,3.0,5.0,50,0.00,,,0.00,Wunderground v.1.15,2013-07-19 17:51:00,
2013-07-19 19:01:00,78.4,57.7,30.20,ENE,69,4.0,4.0,49,0.00,,,0.00,Wunderground v.1.15,2013-07-19 18:01:00,
2013-07-19 19:06:00,78.0,58.4,30.20,East,90,3.0,4.0,51,0.00,,,0.00,Wunderground v.1.15,2013-07-19 18:06:00,
2013-07-19 19:11:00,77.7,58.7,30.20,NE,53,3.0,6.0,52,0.00,,,0.00,Wunderground v.1.15,2013-07-19 18:11:00,
2013-07-19 19:21:00,77.1,58.6,30.20,South,181,3.0,3.0,53,0.00,,,0.00,Wunderground v.1.15,2013-07-19 18:21:00,
2013-07-19 19:31:00,76.4,59.0,30.20,East,81,4.0,4.0,55,0.00,,,0.00,Wunderground v.1.15,2013-07-19 18:31:00,
2013-07-19 19:36:00,76.2,59.4,30.20,NE,42,3.0,6.0,56,0.00,,,0.00,Wunderground v.1.15,2013-07-19 18:36:00,
2013-07-19 19:46:00,75.7,58.9,30.21,ENE,78,3.0,3.0,56,0.00,,,0.00,Wunderground v.1.15,2013-07-19 18:46:00,
2013-07-19 19:56:00,75.3,59.5,30.21,SSE,154,3.0,3.0,58,0.00,,,0.00,Wunderground v.1.15,2013-07-19 18:56:00,
2013-07-19 20:06:00,75.0,60.2,30.21,ENE,67,2.0,4.0,60,0.00,,,0.00,Wunderground v.1.15,2013-07-19 19:06:00,
2013-07-19 20:16:00,74.7,60.4,30.21,NE,44,2.0,3.0,61,0.00,,,0.00,Wunderground v.1.15,2013-07-19 19:16:00,
2013-07-19 20:26:00,74.1,59.8,30.21,SE,125,3.0,4.0,61,0.00,,,0.00,Wunderground v.1.15,2013-07-19 19:26:00,
2013-07-19 20:36:00,73.5,59.7,30.22,East,81,2.0,7.0,62,0.00,,,0.00,Wunderground v.1.15,2013-07-19 19:36:00,
2013-07-19 20:41:00,73.3,59.5,30.22,ENE,63,3.0,3.0,62,0.00,,,0.00,Wunderground v.1.15,2013-07-19 19:41:00,
2013-07-19 20:51:00,72.8,59.5,30.22,SSE,150,2.0,2.0,63,0.00,,,0.00,Wunderground v.1.15,2013-07-19 19:51:00,
2013-07-19 21:01:00,72.4,59.5,30.22,NNE,31,1.0,1.0,64,0.00,,,0.00,Wunderground v.1.15,2013-07-19 20:01:00,
2013-07-19 21:06:00,72.2,59.3,30.23,ENE,69,2.0,2.0,64,0.00,,,0.00,Wunderground v.1.15,2013-07-19 20:06:00,
2013-07-19 21:16:00,71.8,59.4,30.23,ENE,73,1.0,2.0,65,0.00,,,0.00,Wunderground v.1.15,2013-07-19 20:16:00,
2013-07-19 21:26:00,71.4,59.4,30.23,NE,46,1.0,2.0,66,0.00,,,0.00,Wunderground v.1.15,2013-07-19 20:26:00,
2013-07-19 21:36:00,70.9,59.4,30.23,ENE,74,1.0,2.0,67,0.00,,,0.00,Wunderground v.1.15,2013-07-19 20:36:00,
2013-07-19 21:41:00,70.7,59.2,30.24,East,80,1.0,2.0,67,0.00,,,0.00,Wunderground v.1.15,2013-07-19 20:41:00,
2013-07-19 21:51:00,70.4,58.9,30.24,East,85,1.0,1.0,67,0.00,,,0.00,Wunderground v.1.15,2013-07-19 20:51:00,
2013-07-19 22:01:00,70.1,59.0,30.24,East,80,1.0,1.0,68,0.00,,,0.00,Wunderground v.1.15,2013-07-19 21:01:00,
2013-07-19 22:06:00,69.9,58.9,30.24,ENE,75,1.0,1.0,68,0.00,,,0.00,Wunderground v.1.15,2013-07-19 21:06:00,
2013-07-19 22:16:00,69.5,58.9,30.25,ENE,71,2.0,2.0,69,0.00,,,0.00,Wunderground v.1.15,2013-07-19 21:16:00,
2013-07-19 22:21:00,69.3,58.7,30.25,NNE,17,2.0,2.0,69,0.00,,,0.00,Wunderground v.1.15,2013-07-19 21:21:00,
2013-07-19 22:31:00,69.1,58.9,30.25,ENE,71,1.0,1.0,70,0.00,,,0.00,Wunderground v.1.15,2013-07-19 21:31:00,
2013-07-19 22:36:00,68.9,58.7,30.25,ENE,68,1.0,1.0,70,0.00,,,0.00,Wunderground v.1.15,2013-07-19 21:36:00,
2013-07-19 22:41:00,68.7,58.9,30.25,NE,41,1.0,1.0,71,0.00,,,0.00,Wunderground v.1.15,2013-07-19 21:41:00,
2013-07-19 22:51:00,68.3,58.5,30.25,NNE,25,2.0,4.0,71,0.00,,,0.00,Wunderground v.1.15,2013-07-19 21:51:00,
2013-07-19 23:01:00,67.9,58.5,30.25,NE,49,2.0,2.0,72,0.00,,,0.00,Wunderground v.1.15,2013-07-19 22:01:00,
2013-07-19 23:06:00,67.8,58.8,30.25,East,82,2.0,2.0,73,0.00,,,0.00,Wunderground v.1.15,2013-07-19 22:06:00,
2013-07-19 23:11:00,67.6,58.6,30.25,East,91,1.0,1.0,73,0.00,,,0.00,Wunderground v.1.15,2013-07-19 22:11:00,
2013-07-19 23:21:00,67.2,58.6,30.25,ESE,102,1.0,1.0,74,0.00,,,0.00,Wunderground v.1.15,2013-07-19 22:21:00,
2013-07-19 23:26:00,67.1,58.5,30.25,ENE,73,1.0,1.0,74,0.00,,,0.00,Wunderground v.1.15,2013-07-19 22:26:00,
2013-07-19 23:36:00,66.8,58.6,30.25,NNE,31,1.0,1.0,75,0.00,,,0.00,Wunderground v.1.15,2013-07-19 22:36:00,
2013-07-19 23:46:00,66.5,58.3,30.26,NNE,16,1.0,2.0,75,0.00,,,0.00,Wunderground v.1.15,2013-07-19 22:46:00,
2013-07-19 23:51:00,66.3,58.5,30.25,ENE,59,1.0,1.0,76,0.00,,,0.00,Wunderground v.1.15,2013-07-19 22:51:00,